星链-5050 (STARLINK-5050 )

导读

STARLINK-5050是美国太空探索技术公司(SpaceX)发射的星链(Starlink)卫星,于2022年9月24日发射,属于星链星座组网卫星,旨在为全球提供高速低延迟互联网服务,尤其覆盖偏远地区与网络基础设施薄弱区域,依托星链星座部署推动全球互联互通,目前在轨运行服务。

基本信息
目录编号:
53890
目录名称:
STARLINK-5050
国际标识:
2022-119E
轨道中心:
EARTH
卫星名称:
星链-5050
卫星全名:
星链-5050 (STARLINK-5050 )
卫星状态:
在轨 (已飞行1360 天)
发射日期:
2022-09-24 UTC
国别 :
美国 (US)
星等 :
--
轨道信息
数据来源 国际轨道数据 AOE轨道数据
星历时间 2026-06-15T03:59:08+0800
11小时前
查看轨道信息
2026-06-15T09:00:00+0800
6小时前
查看轨道信息
半长轴 6917.912km 6917.909km
偏心率 0.0001159 0.0001398
轨道倾角 53.159° 53.157°
近地点辐角 82.532° 85.390°
升交点赤经 212.729° 211.790°
平近点角 277.580° 330.250°
近地点 538.973km 538.804km
远地点 540.577km 540.74km
周期 95.438分钟 95.438分钟
每日圈数 15.088297 15.088309
详细信息
固有亮度:
5
最大亮度:
2.5
卫星平台:
Starlink v1.5
覆盖范围:
全球
运营商:
太空探索技术公司
运营商所在国:
美国
制造商(研发单位):
太空探索技术公司
制造商所在国:
美国
使用方式:
暂无
卫星简介
星链(Starlink)计划是由太空探索技术公司(SpaceX)提出的一个巨型低轨卫星互联网星座项目,计划在2019年至2024年间在太空搭建由约1.2万颗卫星组成的“星链”网络,其中1584颗将部署在地球上空550千米处的近地轨道,并从2020年开始工作。该卫星仍在工作。
2D轨道图
3D轨道图
轨道高度分析图
轨道倾角分析图
轨道综合分析图
查看轨道综合分析图